sat.trackr.live / text

‹ back to catalog

KINEIS-2B

NORAD 62934 · 2025-028G

PAYLOAD ACTIVE UNKNOWN

§ Identity

Operator
Country
FR
Launch date
2025-02-08
Launch site
RLLB
Launch vehicle
Mass (kg)
RCS (m²)

External: N2YO · Heavens-Above · Gunter

§ Orbital elements

Epoch: 2026-05-25T02:49:16.752000Z

Period
97.74 min
Inclination
97.9680°
Eccentricity
0.0002857
Mean motion
14.73313646 rev/d
Perigee alt
648.5 km
Apogee alt
652.5 km
Semi-major
7,028.6 km
B*
1.7273e-4
RAAN
198.3978°
Arg perigee
200.9025°
Mean anomaly
159.2067°
Rev number
6,926

§ Raw data

KINEIS-2B1 62934U 25028G   26145.11755500  .00001068  00000+0  17273-3 0  99902 62934  97.9680 198.3978 0002857 200.9025 159.2067 14.73313646 69261

JSON: /api/v1/satellites/62934 · /tle

For live sub-satellite position, see the globe view (requires WebGL).

§ Visibility from observer

Set your observer location to see the next 7 days of passes ≥ 10°. The values pass through the URL so the page stays shareable.

No JS? Fill the form by hand. The geolocation button needs JavaScript.

§ Radio — SatNOGS DB

ModeDescriptionDownlinkUplink
BPSK S-band telemetry 2.266 GHz
FM S-band telemetry 2.261 GHz
FM Telemetry 400.646 MHz

3 transmitters · refreshed weekly from db.satnogs.org